Location: Moscow
(55.7500°N, 37.5830°E)
Time: 20:47:23
(UTC+03:00)

Transit 2A Rocket - All Passes

Search period start: 06 December 2021 00:00
Search period end: 16 December 2021 00:00
Orbit: 584 x 918 km, 66.7° (Epoch: 05 December)

Date Brightness Start Highest point End Pass type
(mag) Time Alt. Az. Time Alt. Az. Time Alt. Az.
06 Dec - 06:23:20 10° SE 06:26:41 16° ESE 06:30:08 10° ENE visible
06 Dec - 08:02:27 10° SSW 08:08:11 62° SE 08:14:15 10° NE daylight
06 Dec - 09:45:21 10° WSW 09:51:08 49° NNW 09:57:07 10° NE daylight
06 Dec - 11:29:45 10° WNW 11:35:05 30° N 11:40:28 10° NE daylight
06 Dec - 13:13:44 10° NW 13:19:20 35° NNE 13:24:50 10° E daylight
06 Dec - 14:56:45 10° NW 15:02:55 72° NE 15:08:51 10° SE daylight
06 Dec - 16:39:48 10° NW 16:45:17 36° WSW 16:50:30 10° S visible
07 Dec - 07:20:12 10° S 07:25:40 43° ESE 07:31:25 10° NE visible
07 Dec - 09:02:20 10° WSW 09:08:14 62° NW 09:14:22 10° NE daylight
07 Dec - 10:46:33 10° WNW 10:51:58 33° NNW 10:57:29 10° NE daylight
07 Dec - 12:30:47 10° NW 12:36:13 31° N 12:41:36 10° ENE daylight
07 Dec - 14:14:00 10° NW 14:20:04 56° NE 14:25:55 10° ESE daylight
07 Dec - 15:56:54 10° NW 16:02:48 51° WSW 16:08:24 10° SSE daylight
07 Dec - 17:41:48 10° WNW 17:44:06 12° W 17:46:22 10° WSW visible
08 Dec - 06:38:16 10° S 06:43:15 30° ESE 06:48:27 10° NE visible
08 Dec - 08:19:29 10° SW 08:25:25 81° NW 08:31:37 10° NE daylight
08 Dec - 10:03:19 10° W 10:08:54 37° NNW 10:14:34 10° NE daylight
08 Dec - 11:47:45 10° NW 11:53:05 30° N 11:58:24 10° ENE daylight
08 Dec - 13:31:14 10° NW 13:37:08 45° NNE 13:42:52 10° ESE daylight
08 Dec - 15:14:06 10° NW 15:20:14 71° SW 15:26:02 10° SSE daylight
08 Dec - 16:57:49 10° WNW 17:01:55 19° WSW 17:05:52 10° SSW visible
09 Dec - 05:56:44 10° SSE 06:00:56 21° ESE 06:05:16 10° ENE visible
09 Dec - 07:36:50 10° SSW 07:42:43 76° SE 07:48:52 10° NE visible
09 Dec - 09:20:09 10° W 09:25:52 43° NNW 09:31:44 10° NE daylight
09 Dec - 11:04:37 10° WNW 11:09:57 30° N 11:15:16 10° ENE daylight
09 Dec - 12:48:24 10° NW 12:54:07 38° NNE 12:59:42 10° E daylight
09 Dec - 14:31:21 10° NW 14:37:32 85° NE 14:43:25 10° SE daylight
09 Dec - 16:14:34 10° NW 16:19:38 28° WSW 16:24:28 10° SSW daylight
10 Dec - 05:15:58 10° SE 05:18:44 14° ESE 05:21:32 10° ENE visible
10 Dec - 06:54:25 10° SSW 07:00:06 54° ESE 07:06:05 10° NE visible
10 Dec - 08:37:04 10° WSW 08:42:55 53° NW 08:48:58 10° NE daylight
10 Dec - 10:21:26 10° WNW 10:26:48 31° N 10:32:13 10° NE daylight
10 Dec - 12:05:31 10° NW 12:11:03 33° NNE 12:16:29 10° E daylight
10 Dec - 13:48:36 10° NW 13:54:44 65° NE 14:00:37 10° ESE daylight
10 Dec - 15:31:35 10° NW 15:37:14 40° WSW 15:42:36 10° S daylight
11 Dec - 06:12:15 10° S 06:17:37 38° ESE 06:23:12 10° NE visible
11 Dec - 07:54:06 10° SW 08:00:02 69° NW 08:06:13 10° NE visible
11 Dec - 09:38:12 10° W 09:43:41 34° NNW 09:49:15 10° NE daylight
11 Dec - 11:22:32 10° NW 11:27:56 31° N 11:33:16 10° ENE daylight
11 Dec - 13:05:51 10° NW 13:11:52 51° NNE 13:17:38 10° ESE daylight
11 Dec - 14:48:44 10° NW 14:54:43 58° SW 15:00:23 10° SSE daylight
11 Dec - 16:33:05 10° WNW 16:36:09 14° WSW 16:39:09 10° SW daylight
12 Dec - 05:30:27 10° SSE 05:35:13 27° ESE 05:40:12 10° ENE visible
12 Dec - 07:11:19 10° SW 07:17:16 89° NNW 07:23:28 10° NE visible
12 Dec - 08:54:59 10° W 09:00:38 39° NNW 09:06:22 10° NE daylight
12 Dec - 10:39:27 10° WNW 10:44:47 30° N 10:50:05 10° ENE daylight
12 Dec - 12:23:03 10° NW 12:28:53 42° NNE 12:34:33 10° E daylight
12 Dec - 14:05:57 10° NW 14:12:06 80° SW 14:17:55 10° SE daylight
12 Dec - 15:49:28 10° WNW 15:53:56 22° WSW 15:58:13 10° SSW daylight
13 Dec - 04:49:08 10° SE 04:52:57 18° ESE 04:56:52 10° ENE visible
13 Dec - 06:28:45 10° SSW 06:34:35 68° SE 06:40:43 10° NE visible
13 Dec - 08:11:50 10° WSW 08:17:37 47° NNW 08:23:34 10° NE daylight
13 Dec - 09:56:18 10° WNW 10:01:39 30° N 10:06:58 10° NE daylight
13 Dec - 11:40:12 10° NW 11:45:51 36° NNE 11:51:22 10° E daylight
13 Dec - 13:23:12 10° NW 13:29:22 78° NE 13:35:14 10° SE daylight
13 Dec - 15:06:20 10° NW 15:11:36 32° WSW 15:16:37 10° S daylight
14 Dec - 04:08:56 10° ESE 04:10:47 11° E 04:12:39 10° E visible
14 Dec - 05:46:24 10° SSW 05:52:02 48° ESE 05:57:54 10° NE visible
14 Dec - 07:28:47 10° WSW 07:34:42 58° NW 07:40:48 10° NE visible
14 Dec - 09:13:05 10° WNW 09:18:30 32° NNW 09:23:57 10° NE daylight
14 Dec - 10:57:17 10° NW 11:02:45 32° NNE 11:08:08 10° ENE daylight
14 Dec - 12:40:27 10° NW 12:46:33 60° NE 12:52:21 10° ESE daylight
14 Dec - 14:23:23 10° NW 14:29:10 46° WSW 14:34:38 10° S daylight
14 Dec - 16:09:14 10° W 16:10:20 11° W 16:11:25 10° WSW daylight
15 Dec - 05:04:22 10° S 05:09:34 34° ESE 05:14:59 10° NE visible
15 Dec - 06:45:53 10° SW 06:51:52 76° NW 06:58:04 10° NE visible
15 Dec - 08:29:51 10° W 08:35:25 35° NNW 08:41:02 10° NE daylight
15 Dec - 10:14:15 10° NW 10:19:38 30° N 10:24:56 10° ENE daylight
15 Dec - 11:57:40 10° NW 12:03:38 47° NNE 12:09:20 10° ESE daylight
15 Dec - 13:40:34 10° NW 13:46:37 65° SW 13:52:19 10° SSE daylight
15 Dec - 15:24:32 10° WNW 15:28:11 17° WSW 15:31:43 10° SW daylight
